Location: B?lite?ti
(46.2833°N, 22.7333°E)
Time: 04:08:53
(UTC+00:00)

Cosmos 773 Rocket - Pass Details

Date: 24 January 2021
Orbit: 746 x 776 km, 74.1° (Epoch: 26 February)

Event Time Altitude Azimuth Distance (km) Brightness Sun altitude
Rises 15:40:39 0° 336° (NNW) 3,210 7.2 -3.7°
Reaches altitude 10° 15:43:02 10° 334° (NNW) 2,278 6.5 -4.1°
Maximum altitude 15:48:09 70° 252° (WSW) 798 4.4 -4.9°
Drops below altitude 10° 15:53:14 10° 169° (S) 2,256 6.6 -5.7°
Sets 15:55:34 0° 167° (SSE) 3,176 7.3 -6.1°
